When you browse on this site, cookies collect data to enhance your experience and personalize the content and advertising you see.
Visit our Privacy Policy to learn more. By continuing to use the site, you agree to this use of cookies and data.
  • în România
  • Lista ţărilor
  • Pe 7 zile
  • Temperatura apei
  • Hartă satelitară
  • Meteo pe hartă
  • Widget-uri
  • user-avatar
    Intrare

    Meteo pe oră la Kobiela

    Astăzi, 18 Februarie, Luni

    Timp Temperatura Precipitaţii Vânt Presiune Umiditate
    00:00 +5°C° 0 mm 1 m/s 748 mmHg 75%
    01:00 +5°C° 0 mm 1 m/s 747 mmHg 77%
    02:00 +4°C° 0 mm 1 m/s 747 mmHg 77%
    03:00 +4°C° 0 mm 1 m/s 747 mmHg 77%
    04:00 +4°C° 0 mm 1 m/s 747 mmHg 78%
    05:00 +4°C° 0 mm 1 m/s 747 mmHg 76%
    06:00 +3°C° 0 mm 1 m/s 747 mmHg 75%
    07:00 +2°C° 0 mm 0 m/s 746 mmHg 74%
    08:00 +5°C° 0 mm 1 m/s 747 mmHg 67%
    09:00 +6°C° 0 mm 1 m/s 747 mmHg 61%
    10:00 +8°C° 0 mm 1 m/s 747 mmHg 54%
    11:00 +9°C° 0 mm 1 m/s 746 mmHg 50%
    12:00 +10°C° 0 mm 1 m/s 746 mmHg 46%
    13:00 +11°C° 0 mm 1 m/s 746 mmHg 42%
    14:00 +11°C° 0 mm 1 m/s 746 mmHg 43%
    15:00 +11°C° 0 mm 1 m/s 745 mmHg 45%
    16:00 +11°C° 0 mm 1 m/s 745 mmHg 47%
    17:00 +10°C° 0 mm 1 m/s 745 mmHg 51%
    18:00 +9°C° 0 mm 1 m/s 745 mmHg 56%
    19:00 +8°C° 0 mm 1 m/s 745 mmHg 60%
    20:00 +7°C° 0 mm 1 m/s 745 mmHg 64%
    21:00 +7°C° 0 mm 1 m/s 745 mmHg 67%
    22:00 +6°C° 0 mm 1 m/s 744 mmHg 71%
    23:00 +6°C° 0 mm 1 m/s 744 mmHg 72%

    Mâine, 19 Februarie, Marţi

    Timp Temperatura Precipitaţii Vânt Presiune Umiditate
    00:00 +5°C° 0 mm 1 m/s 744 mmHg 73%
    01:00 +5°C° 0 mm 1 m/s 744 mmHg 74%
    02:00 +4°C° 0 mm 1 m/s 744 mmHg 73%
    03:00 +4°C° 0 mm 1 m/s 744 mmHg 72%
    04:00 +4°C° 0 mm 1 m/s 743 mmHg 70%
    05:00 +3°C° 0 mm 1 m/s 743 mmHg 69%
    06:00 +3°C° 0 mm 1 m/s 743 mmHg 67%
    07:00 +3°C° 0 mm 1 m/s 743 mmHg 65%
    08:00 +5°C° 0 mm 1 m/s 743 mmHg 60%
    09:00 +6°C° 0 mm 1 m/s 743 mmHg 54%
    10:00 +8°C° 0 mm 1 m/s 742 mmHg 48%
    11:00 +9°C° 0 mm 2 m/s 742 mmHg 45%
    12:00 +10°C° 0 mm 2 m/s 742 mmHg 43%
    13:00 +11°C° 0 mm 3 m/s 742 mmHg 40%
    14:00 +11°C° 0 mm 3 m/s 741 mmHg 44%
    15:00 +11°C° 0 mm 3 m/s 741 mmHg 47%
    16:00 +11°C° 0 mm 3 m/s 741 mmHg 50%
    17:00 +9°C° 0 mm 3 m/s 741 mmHg 57%
    18:00 +7°C° 0 mm 4 m/s 741 mmHg 63%
    19:00 +6°C° 0 mm 4 m/s 741 mmHg 70%
    20:00 +5°C° 0 mm 4 m/s 741 mmHg 72%
    21:00 +5°C° 0 mm 4 m/s 741 mmHg 74%
    22:00 +4°C° 0 mm 4 m/s 741 mmHg 76%
    23:00 +4°C° 0.1 mm 4 m/s 741 mmHg 76%

    Poimâine, 20 Februarie, Miercuri

    Timp Temperatura Precipitaţii Vânt Presiune Umiditate
    00:00 +4°C° 0.1 mm 4 m/s 742 mmHg 77%
    01:00 +3°C° 0.1 mm 5 m/s 742 mmHg 77%
    02:00 +3°C° 0.4 mm 5 m/s 742 mmHg 81%
    03:00 +4°C° 0.4 mm 4 m/s 742 mmHg 85%
    04:00 +4°C° 0.4 mm 4 m/s 742 mmHg 89%
    05:00 +3°C° 0 mm 4 m/s 742 mmHg 89%
    06:00 +3°C° 0 mm 4 m/s 743 mmHg 90%
    07:00 +3°C° 0 mm 4 m/s 743 mmHg 91%
    08:00 +3°C° 0.1 mm 5 m/s 743 mmHg 83%
    09:00 +5°C° 0.1 mm 5 m/s 744 mmHg 75%
    10:00 +5°C° 0.1 mm 6 m/s 744 mmHg 66%
    11:00 +5°C° 0 mm 6 m/s 744 mmHg 64%
    12:00 +7°C° 0 mm 6 m/s 744 mmHg 62%
    13:00 +6°C° 0 mm 7 m/s 744 mmHg 59%
    14:00 +7°C° 0 mm 6 m/s 744 mmHg 60%
    15:00 +7°C° 0 mm 6 m/s 744 mmHg 60%
    16:00 +6°C° 0 mm 5 m/s 744 mmHg 60%
    17:00 +6°C° 0 mm 5 m/s 745 mmHg 63%
    18:00 +5°C° 0 mm 4 m/s 745 mmHg 66%
    19:00 +5°C° 0 mm 3 m/s 745 mmHg 68%
    20:00 +5°C° 0 mm 3 m/s 746 mmHg 70%
    21:00 +5°C° 0 mm 4 m/s 746 mmHg 72%
    22:00 +5°C° 0 mm 4 m/s 746 mmHg 74%
    23:00 +4°C° 0 mm 4 m/s 746 mmHg 75%

    21 Februarie, Joi

    Timp Temperatura Precipitaţii Vânt Presiune Umiditate
    00:00 +4°C° 0 mm 4 m/s 746 mmHg 77%
    01:00 +4°C° 0 mm 4 m/s 746 mmHg 79%
    02:00 +3°C° 0 mm 4 m/s 746 mmHg 80%
    03:00 +3°C° 0 mm 4 m/s 746 mmHg 80%
    04:00 +3°C° 0 mm 4 m/s 746 mmHg 81%
    05:00 +1°C° 0 mm 4 m/s 746 mmHg 81%
    06:00 +1°C° 0 mm 4 m/s 746 mmHg 81%
    07:00 +1°C° 0 mm 4 m/s 746 mmHg 82%
    08:00 +3°C° 0.1 mm 4 m/s 746 mmHg 78%
    09:00 +3°C° 0.1 mm 5 m/s 746 mmHg 73%
    10:00 +5°C° 0.1 mm 5 m/s 746 mmHg 69%
    11:00 +5°C° 0.3 mm 5 m/s 746 mmHg 69%
    12:00 +6°C° 0.3 mm 5 m/s 746 mmHg 68%
    13:00 +6°C° 0.3 mm 5 m/s 746 mmHg 68%
    14:00 +6°C° 0.2 mm 5 m/s 746 mmHg 70%
    15:00 +6°C° 0.2 mm 5 m/s 746 mmHg 73%
    16:00 +6°C° 0.2 mm 4 m/s 746 mmHg 76%
    17:00 +5°C° 0.1 mm 4 m/s 746 mmHg 78%
    18:00 +5°C° 0.1 mm 4 m/s 746 mmHg 81%
    19:00 +5°C° 0.1 mm 4 m/s 747 mmHg 83%
    20:00 +5°C° 0.2 mm 3 m/s 747 mmHg 85%
    21:00 +5°C° 0.2 mm 3 m/s 747 mmHg 86%
    22:00 +5°C° 0.2 mm 3 m/s 747 mmHg 88%
    23:00 +4°C° 0.2 mm 3 m/s 748 mmHg 89%

    22 Februarie, Vineri

    Timp Temperatura Precipitaţii Vânt Presiune Umiditate
    00:00 +4°C° 0.2 mm 3 m/s 748 mmHg 90%
    01:00 +4°C° 0.2 mm 3 m/s 748 mmHg 91%
    02:00 +4°C° 0 mm 3 m/s 748 mmHg 92%
    03:00 +4°C° 0 mm 3 m/s 749 mmHg 93%
    04:00 +4°C° 0 mm 3 m/s 749 mmHg 94%
    05:00 +4°C° 0 mm 3 m/s 749 mmHg 94%
    06:00 +4°C° 0 mm 3 m/s 750 mmHg 94%
    07:00 +4°C° 0 mm 3 m/s 751 mmHg 94%
    08:00 +5°C° 0.1 mm 3 m/s 751 mmHg 91%
    09:00 +5°C° 0.1 mm 4 m/s 752 mmHg 88%
    10:00 +5°C° 0.1 mm 4 m/s 752 mmHg 84%
    11:00 +5°C° 0.1 mm 4 m/s 753 mmHg 81%
    12:00 +5°C° 0.1 mm 4 m/s 753 mmHg 78%
    13:00 +5°C° 0.1 mm 4 m/s 753 mmHg 75%
    14:00 +5°C° 0 mm 4 m/s 754 mmHg 67%
    15:00 +5°C° 0 mm 4 m/s 754 mmHg 60%
    16:00 +5°C° 0 mm 4 m/s 754 mmHg 53%
    17:00 +4°C° 0 mm 3 m/s 755 mmHg 53%
    18:00 +3°C° 0 mm 3 m/s 756 mmHg 53%
    19:00 +1°C° 0 mm 3 m/s 756 mmHg 53%
    20:00 +2°C° 0 mm 2 m/s 757 mmHg 56%
    21:00 +1°C° 0 mm 2 m/s 757 mmHg 58%
    22:00 -1°C° 0 mm 2 m/s 757 mmHg 61%
    23:00 +1°C° 0 mm 1 m/s 758 mmHg 61%

    23 Februarie, Sâmbătă

    Timp Temperatura Precipitaţii Vânt Presiune Umiditate
    00:00 +1°C° 0 mm 1 m/s 758 mmHg 61%
    01:00 0°C° 0 mm 1 m/s 758 mmHg 61%
    02:00 0°C° 0 mm 1 m/s 758 mmHg 60%
    03:00 0°C° 0 mm 1 m/s 758 mmHg 59%
    04:00 0°C° 0 mm 1 m/s 759 mmHg 58%
    05:00 0°C° 0 mm 1 m/s 759 mmHg 58%
    06:00 -1°C° 0 mm 0 m/s 759 mmHg 57%
    07:00 -1°C° 0 mm 0 m/s 759 mmHg 56%
    08:00 0°C° 0 mm 0 m/s 759 mmHg 50%
    09:00 +1°C° 0 mm 0 m/s 759 mmHg 44%
    10:00 +2°C° 0 mm 0 m/s 759 mmHg 38%
    11:00 +3°C° 0 mm 0 m/s 759 mmHg 36%
    12:00 +4°C° 0 mm 0 m/s 759 mmHg 34%
    13:00 +5°C° 0 mm 0 m/s 758 mmHg 32%
    14:00 +6°C° 0 mm 1 m/s 758 mmHg 34%
    15:00 +6°C° 0 mm 1 m/s 757 mmHg 36%
    16:00 +6°C° 0 mm 1 m/s 757 mmHg 38%
    17:00 +6°C° 0 mm 1 m/s 757 mmHg 41%
    18:00 +5°C° 0 mm 2 m/s 757 mmHg 45%
    19:00 +4°C° 0 mm 2 m/s 757 mmHg 48%
    20:00 +4°C° 0 mm 2 m/s 757 mmHg 53%
    21:00 +3°C° 0 mm 2 m/s 756 mmHg 57%
    22:00 +1°C° 0 mm 3 m/s 756 mmHg 61%
    23:00 +1°C° 0 mm 3 m/s 756 mmHg 65%
    Arată mai mult